| time (UTC) | temp F | wind direction | speed MPH | gust MPH | rain 1hr in | rain 24hr in | rain mn in | humidity % | barometer mb |
| 20260504215510 | 77 | 222 | 13.0 | 21.0 | 0.00 | 0.00 | 0.00 | 42 | 1011.7 |
| 20260504215009 | 77 | 199 | 6.0 | 22.0 | 0.00 | 0.00 | 0.00 | 43 | 1011.7 |
| 20260504214515 | 78 | 165 | 8.0 | 22.0 | 0.00 | 0.00 | 0.00 | 45 | 1011.7 |
| 20260504214008 | 78 | 214 | 4.0 | 17.0 | 0.00 | 0.00 | 0.00 | 45 | 1011.5 |
| 20260504213506 | 78 | 206 | 7.0 | 15.0 | 0.00 | 0.00 | 0.00 | 45 | 1011.5 |
| 20260504213043 | 78 | 173 | 5.0 | 17.0 | 0.00 | 0.00 | 0.00 | 46 | 1011.6 |
| 20260504212507 | 78 | 221 | 5.0 | 19.0 | 0.00 | 0.00 | 0.00 | 47 | 1011.6 |
| 20260504212007 | 77 | 188 | 7.0 | 19.0 | 0.00 | 0.00 | 0.00 | 44 | 1011.6 |
| 20260504211525 | 78 | 197 | 9.0 | 15.0 | 0.00 | 0.00 | 0.00 | 46 | 1011.6 |
| 20260504211012 | 78 | 213 | 7.0 | 13.0 | 0.00 | 0.00 | 0.00 | 43 | 1011.6 |
| 20260504210508 | 78 | 169 | 4.0 | 14.0 | 0.00 | 0.00 | 0.00 | 48 | 1011.6 |
| 20260504210027 | 78 | 159 | 6.0 | 16.0 | 0.00 | 0.00 | 0.00 | 45 | 1011.7 |
| 20260504205507 | 78 | 202 | 8.0 | 16.0 | 0.00 | 0.00 | 0.00 | 44 | 1011.7 |
| 20260504205006 | 78 | 207 | 6.0 | 17.0 | 0.00 | 0.00 | 0.00 | 47 | 1011.8 |
| 20260504204527 | 77 | 209 | 6.0 | 21.0 | 0.00 | 0.00 | 0.00 | 47 | 1012.0 |
| 20260504204010 | 79 | 202 | 10.0 | 21.0 | 0.00 | 0.00 | 0.00 | 44 | 1012.1 |
| 20260504203511 | 78 | 223 | 7.0 | 17.0 | 0.00 | 0.00 | 0.00 | 44 | 1012.1 |
| 20260504203018 | 78 | 269 | 9.0 | 17.0 | 0.00 | 0.00 | 0.00 | 44 | 1012.3 |
| 20260504202507 | 76 | 134 | 3.0 | 24.0 | 0.00 | 0.00 | 0.00 | 50 | 1012.2 |
| 20260504202007 | 77 | 225 | 7.0 | 24.0 | 0.00 | 0.00 | 0.00 | 45 | 1012.4 |
| 20260504201505 | 77 | 223 | 12.0 | 23.0 | 0.00 | 0.00 | 0.00 | 44 | 1012.5 |
| 20260504201002 | 77 | 204 | 9.0 | 19.0 | 0.00 | 0.00 | 0.00 | 42 | 1012.4 |
| 20260504200504 | 77 | 198 | 7.0 | 15.0 | 0.00 | 0.00 | 0.00 | 45 | 1012.5 |
| 20260504200004 | 77 | 195 | 4.0 | 15.0 | 0.00 | 0.00 | 0.00 | 50 | 1012.7 |
| 20260504195502 | 77 | 204 | 8.0 | 15.0 | 0.00 | 0.00 | 0.00 | 47 | 1012.8 |
| 20260504195002 | 78 | 184 | 5.0 | 12.0 | 0.00 | 0.00 | 0.00 | 48 | 1012.8 |
| 20260504194514 | 78 | 228 | 6.0 | 14.0 | 0.00 | 0.00 | 0.00 | 48 | 1012.8 |
| 20260504194002 | 77 | 154 | 8.0 | 21.0 | 0.00 | 0.00 | 0.00 | 49 | 1012.9 |
| 20260504193505 | 76 | 230 | 7.0 | 21.0 | 0.00 | 0.00 | 0.00 | 48 | 1012.9 |
| 20260504193016 | 77 | 194 | 4.0 | 15.0 | 0.00 | 0.00 | 0.00 | 48 | 1013.0 |
| 20260504192506 | 78 | 191 | 6.0 | 15.0 | 0.00 | 0.00 | 0.00 | 48 | 1013.2 |
| 20260504192006 | 77 | 138 | 6.0 | 14.0 | 0.00 | 0.00 | 0.00 | 48 | 1013.2 |
| 20260504191520 | 77 | 121 | 5.0 | 14.0 | 0.00 | 0.00 | 0.00 | 49 | 1013.2 |
| 20260504191008 | 78 | 193 | 5.0 | 13.0 | 0.00 | 0.00 | 0.00 | 49 | 1013.3 |
| 20260504190507 | 77 | 180 | 5.0 | 15.0 | 0.00 | 0.00 | 0.00 | 49 | 1013.3 |
| 20260504190021 | 77 | 206 | 8.0 | 15.0 | 0.00 | 0.00 | 0.00 | 50 | 1013.3 |
| 20260504185506 | 78 | 183 | 6.0 | 15.0 | 0.00 | 0.00 | 0.00 | 49 | 1013.4 |
| 20260504185002 | 77 | 148 | 6.0 | 14.0 | 0.00 | 0.00 | 0.00 | 50 | 1013.5 |
| 20260504184514 | 77 | 207 | 7.0 | 14.0 | 0.00 | 0.00 | 0.00 | 51 | 1013.5 |
| 20260504184003 | 78 | 208 | 4.0 | 15.0 | 0.00 | 0.00 | 0.00 | 48 | 1013.5 |
| 20260504183503 | 77 | 271 | 4.0 | 19.0 | 0.00 | 0.00 | 0.00 | 49 | 1013.6 |
| 20260504183019 | 76 | 208 | 5.0 | 19.0 | 0.00 | 0.00 | 0.00 | 51 | 1013.6 |
| 20260504182509 | 76 | 202 | 7.0 | 16.0 | 0.00 | 0.00 | 0.00 | 51 | 1013.6 |
| 20260504182007 | 75 | 209 | 8.0 | 16.0 | 0.00 | 0.00 | 0.00 | 50 | 1013.6 |
| 20260504181519 | 76 | 175 | 8.0 | 13.0 | 0.00 | 0.00 | 0.00 | 51 | 1013.6 |
| 20260504181007 | 76 | 217 | 6.0 | 15.0 | 0.00 | 0.00 | 0.00 | 50 | 1013.6 |
| 20260504180507 | 77 | 210 | 7.0 | 16.0 | 0.00 | 0.00 | 0.00 | 49 | 1013.8 |
| 20260504180022 | 76 | 216 | 8.0 | 16.0 | 0.00 | 0.00 | 0.00 | 50 | 1013.7 |
| 20260504175506 | 77 | 175 | 7.0 | 13.0 | 0.00 | 0.00 | 0.00 | 52 | 1013.7 |
| 20260504175009 | 76 | 180 | 6.0 | 13.0 | 0.00 | 0.00 | 0.00 | 51 | 1013.9 |
| 20260504174526 | 76 | 215 | 4.0 | 11.0 | 0.00 | 0.00 | 0.00 | 50 | 1014.0 |
| 20260504174002 | 75 | 137 | 6.0 | 16.0 | 0.00 | 0.00 | 0.00 | 54 | 1014.0 |
| 20260504173506 | 75 | 219 | 10.0 | 16.0 | 0.00 | 0.00 | 0.00 | 51 | 1014.0 |
| 20260504173022 | 76 | 178 | 8.0 | 14.0 | 0.00 | 0.00 | 0.00 | 50 | 1014.2 |
| 20260504172503 | 75 | 219 | 6.0 | 13.0 | 0.00 | 0.00 | 0.00 | 52 | 1014.1 |
| 20260504172006 | 75 | 225 | 7.0 | 15.0 | 0.00 | 0.00 | 0.00 | 53 | 1014.2 |
| 20260504171521 | 75 | 135 | 8.0 | 15.0 | 0.00 | 0.00 | 0.00 | 53 | 1014.3 |
| 20260504171005 | 75 | 195 | 5.0 | 15.0 | 0.00 | 0.00 | 0.00 | 51 | 1014.4 |
| 20260504170510 | 74 | 161 | 7.0 | 21.0 | 0.00 | 0.00 | 0.00 | 54 | 1014.4 |
| 20260504151013 | 68 | 220 | 7.0 | 16.0 | 0.00 | 0.00 | 0.00 | 56 | 1015.6 |
| 20260504150507 | 68 | 183 | 9.0 | 16.0 | 0.00 | 0.00 | 0.00 | 56 | 1015.6 |
| 20260504141011 | 64 | 190 | 7.0 | 17.0 | 0.00 | 0.00 | 0.00 | 56 | 1016.2 |
| 20260504140509 | 64 | 129 | 8.0 | 17.0 | 0.00 | 0.00 | 0.00 | 56 | 1016.3 |
| 20260504130510 | 60 | 162 | 6.0 | 18.0 | 0.00 | 0.00 | 0.00 | 58 | 1016.2 |
| 20260504110503 | 57 | 219 | 7.0 | 17.0 | 0.00 | 0.00 | 0.00 | 57 | 1015.5 |
| 20260504100505 | 56 | 174 | 3.0 | 6.0 | 0.00 | 0.00 | 0.00 | 59 | 1015.5 |
| 20260504082002 | 54 | 171 | 4.0 | 7.0 | 0.00 | 0.00 | 0.00 | 61 | 1015.9 |
| 20260504081515 | 54 | 160 | 4.0 | 11.0 | 0.00 | 0.00 | 0.00 | 61 | 1016.0 |
| 20260504081004 | 54 | 204 | 6.0 | 11.0 | 0.00 | 0.00 | 0.00 | 61 | 1016.0 |
| 20260504080503 | 53 | 116 | 4.0 | 11.0 | 0.00 | 0.00 | 0.00 | 62 | 1016.0 |
| 20260504050503 | 54 | 196 | 3.0 | 10.0 | 0.00 | 0.01 | 0.00 | 63 | 1017.0 |
| 20260504050012 | 54 | 202 | 4.0 | 8.0 | 0.00 | 0.01 | 0.00 | 63 | 1017.0 |
| 20260504045504 | 54 | 156 | 3.0 | 8.0 | 0.00 | 0.01 | 0.01 | 63 | 1016.9 |
| 20260504045007 | 54 | 203 | 3.0 | 9.0 | 0.00 | 0.01 | 0.01 | 63 | 1016.8 |
| 20260504044533 | 53 | 211 | 4.0 | 12.0 | 0.00 | 0.01 | 0.01 | 63 | 1016.9 |
| 20260504044006 | 53 | 206 | 3.0 | 12.0 | 0.00 | 0.01 | 0.01 | 64 | 1016.9 |
| 20260504043504 | 52 | 215 | 2.0 | 6.0 | 0.00 | 0.01 | 0.01 | 65 | 1016.9 |
| 20260504043022 | 52 | 170 | 3.0 | 9.0 | 0.00 | 0.01 | 0.01 | 65 | 1017.0 |
| 20260504042503 | 52 | 173 | 2.0 | 9.0 | 0.00 | 0.01 | 0.01 | 65 | 1017.0 |
| 20260504042006 | 52 | 156 | 3.0 | 9.0 | 0.00 | 0.01 | 0.01 | 65 | 1017.0 |
| 20260504041503 | 52 | 194 | 2.0 | 5.0 | 0.00 | 0.01 | 0.01 | 64 | 1017.1 |
| 20260504041002 | 52 | 194 | 2.0 | 5.0 | 0.00 | 0.01 | 0.01 | 64 | 1017.0 |
| 20260504040503 | 51 | 194 | 1.0 | 4.0 | 0.00 | 0.01 | 0.01 | 64 | 1017.0 |
| 20260504040007 | 51 | 194 | 1.0 | 5.0 | 0.00 | 0.01 | 0.01 | 66 | 1017.1 |
| 20260504035506 | 50 | 194 | 3.0 | 5.0 | 0.00 | 0.01 | 0.01 | 67 | 1016.9 |
| 20260504035004 | 50 | 144 | 2.0 | 4.0 | 0.00 | 0.01 | 0.01 | 69 | 1017.0 |
| 20260504034512 | 49 | 144 | 2.0 | 4.0 | 0.00 | 0.01 | 0.01 | 70 | 1016.8 |
| 20260504034004 | 49 | 144 | 2.0 | 5.0 | 0.00 | 0.01 | 0.01 | 70 | 1016.8 |
| 20260504033508 | 49 | 144 | 3.0 | 5.0 | 0.00 | 0.01 | 0.01 | 71 | 1016.9 |
| 20260504033018 | 48 | 144 | 2.0 | 5.0 | 0.00 | 0.01 | 0.01 | 71 | 1016.9 |
| 20260504032504 | 48 | 144 | 3.0 | 5.0 | 0.00 | 0.01 | 0.01 | 72 | 1016.9 |
| 20260504032005 | 48 | 144 | 3.0 | 4.0 | 0.00 | 0.01 | 0.01 | 73 | 1017.1 |
| 20260504031524 | 47 | 144 | 2.0 | 4.0 | 0.00 | 0.01 | 0.01 | 74 | 1017.2 |
| 20260504031008 | 47 | 144 | 2.0 | 4.0 | 0.00 | 0.01 | 0.01 | 74 | 1017.3 |
| 20260504030503 | 47 | 145 | 1.0 | 2.0 | 0.00 | 0.01 | 0.01 | 74 | 1017.3 |
| 20260504030004 | 47 | 145 | 0.0 | 0.0 | 0.00 | 0.01 | 0.01 | 73 | 1017.3 |
| 20260504025503 | 48 | 145 | 0.0 | 0.0 | 0.00 | 0.01 | 0.01 | 71 | 1017.3 |
| 20260504025003 | 48 | 145 | 0.0 | 0.0 | 0.00 | 0.01 | 0.01 | 71 | 1017.3 |
| 20260504024515 | 49 | 145 | 0.0 | 2.0 | 0.00 | 0.01 | 0.01 | 70 | 1017.2 |
| 20260504024007 | 49 | 145 | 0.0 | 2.0 | 0.00 | 0.01 | 0.01 | 71 | 1017.2 |
| 20260504023503 | 49 | 144 | 1.0 | 3.0 | 0.00 | 0.01 | 0.01 | 71 | 1017.1 |
| 20260504023012 | 48 | 145 | 1.0 | 3.0 | 0.00 | 0.01 | 0.01 | 71 | 1017.0 |
| 20260504022504 | 48 | 144 | 2.0 | 3.0 | 0.00 | 0.01 | 0.01 | 71 | 1016.9 |
| 20260504022004 | 49 | 144 | 1.0 | 2.0 | 0.00 | 0.01 | 0.01 | 71 | 1016.9 |
| 20260504021525 | 49 | 145 | 1.0 | 2.0 | 0.00 | 0.01 | 0.01 | 69 | 1016.9 |
| 20260504021005 | 49 | 145 | 0.0 | 1.0 | 0.00 | 0.01 | 0.01 | 67 | 1016.9 |
| 20260504020508 | 50 | 145 | 0.0 | 1.0 | 0.00 | 0.01 | 0.01 | 66 | 1016.8 |
| 20260504020021 | 50 | 145 | 0.0 | 1.0 | 0.00 | 0.01 | 0.01 | 66 | 1016.6 |
| 20260504015508 | 50 | 145 | 0.0 | 1.0 | 0.00 | 0.01 | 0.01 | 66 | 1016.6 |
| 20260504015008 | 51 | 145 | 0.0 | 1.0 | 0.00 | 0.01 | 0.01 | 65 | 1016.6 |
| 20260504014507 | 51 | 144 | 0.0 | 1.0 | 0.00 | 0.01 | 0.01 | 64 | 1016.4 |
| 20260504014003 | 51 | 145 | 0.0 | 2.0 | 0.00 | 0.01 | 0.01 | 63 | 1016.3 |
| 20260504013503 | 52 | 144 | 0.0 | 3.0 | 0.00 | 0.01 | 0.01 | 62 | 1016.2 |
| 20260504013011 | 52 | 144 | 1.0 | 3.0 | 0.00 | 0.01 | 0.01 | 62 | 1016.2 |
| 20260504012504 | 53 | 145 | 1.0 | 3.0 | 0.00 | 0.01 | 0.01 | 60 | 1016.2 |
| 20260504012007 | 53 | 144 | 1.0 | 3.0 | 0.00 | 0.01 | 0.01 | 60 | 1016.2 |
| 20260504011514 | 54 | 144 | 1.0 | 2.0 | 0.00 | 0.01 | 0.01 | 57 | 1016.2 |
| 20260504011007 | 54 | 144 | 1.0 | 2.0 | 0.00 | 0.01 | 0.01 | 55 | 1016.3 |
| 20260504010505 | 55 | 144 | 1.0 | 3.0 | 0.00 | 0.01 | 0.01 | 55 | 1016.3 |
| 20260504010020 | 55 | 145 | 1.0 | 3.0 | 0.00 | 0.01 | 0.01 | 54 | 1016.2 |
| 20260504005505 | 56 | 145 | 2.0 | 3.0 | 0.00 | 0.01 | 0.01 | 52 | 1016.3 |
| 20260504005005 | 56 | 145 | 1.0 | 2.0 | 0.00 | 0.01 | 0.01 | 52 | 1016.3 |
| 20260504004526 | 56 | 145 | 0.0 | 3.0 | 0.00 | 0.01 | 0.01 | 52 | 1016.3 |
| 20260504004010 | 56 | 144 | 1.0 | 3.0 | 0.00 | 0.01 | 0.01 | 52 | 1016.2 |
| 20260504003507 | 57 | 145 | 1.0 | 2.0 | 0.00 | 0.01 | 0.01 | 51 | 1016.3 |
| 20260504003025 | 57 | 145 | 0.0 | 3.0 | 0.00 | 0.01 | 0.01 | 51 | 1016.4 |
| 20260504002503 | 57 | 145 | 1.0 | 3.0 | 0.00 | 0.01 | 0.01 | 51 | 1016.4 |
| 20260504002003 | 57 | 125 | 1.0 | 3.0 | 0.00 | 0.02 | 0.01 | 51 | 1016.4 |
| 20260504001518 | 58 | 83 | 1.0 | 2.0 | 0.00 | 0.02 | 0.01 | 50 | 1016.4 |
| 20260504001005 | 58 | 226 | 1.0 | 2.0 | 0.00 | 0.03 | 0.01 | 49 | 1016.4 |
| 20260504000506 | 59 | 226 | 1.0 | 3.0 | 0.00 | 0.04 | 0.01 | 47 | 1016.6 |
| 20260504000015 | 60 | 226 | 1.0 | 6.0 | 0.00 | 0.04 | 0.01 | 46 | 1016.7 |
| 20260503235506 | 61 | 226 | 2.0 | 6.0 | 0.00 | 0.04 | 0.01 | 44 | 1016.8 |
| 20260503235007 | 61 | 226 | 3.0 | 6.0 | 0.00 | 0.04 | 0.01 | 43 | 1017.0 |
| 20260503234520 | 62 | 238 | 2.0 | 5.0 | 0.00 | 0.04 | 0.01 | 41 | 1017.0 |
| 20260503234013 | 63 | 240 | 2.0 | 6.0 | 0.00 | 0.04 | 0.01 | 43 | 1017.1 |
| 20260503233507 | 63 | 240 | 2.0 | 6.0 | 0.00 | 0.04 | 0.01 | 41 | 1017.1 |
| 20260503233026 | 63 | 217 | 2.0 | 9.0 | 0.00 | 0.04 | 0.01 | 42 | 1017.1 |
| 20260503232508 | 63 | 231 | 2.0 | 9.0 | 0.00 | 0.04 | 0.01 | 42 | 1017.1 |
| 20260503232016 | 64 | 246 | 3.0 | 8.0 | 0.00 | 0.04 | 0.01 | 40 | 1017.1 |
| 20260503231526 | 64 | 236 | 2.0 | 7.0 | 0.00 | 0.04 | 0.01 | 43 | 1017.2 |
| 20260503231012 | 63 | 229 | 3.0 | 10.0 | 0.00 | 0.04 | 0.01 | 42 | 1017.2 |
| 20260503230503 | 63 | 224 | 4.0 | 10.0 | 0.00 | 0.04 | 0.01 | 42 | 1017.2 |
| 20260503230016 | 64 | 205 | 4.0 | 13.0 | 0.00 | 0.04 | 0.01 | 42 | 1017.1 |
| 20260503225503 | 64 | 250 | 3.0 | 13.0 | 0.00 | 0.04 | 0.01 | 42 | 1017.2 |
| 20260503225006 | 64 | 221 | 4.0 | 10.0 | 0.00 | 0.04 | 0.01 | 40 | 1017.2 |
| 20260503224518 | 64 | 211 | 2.0 | 12.0 | 0.00 | 0.04 | 0.01 | 43 | 1017.3 |
| 20260503224007 | 64 | 192 | 4.0 | 13.0 | 0.00 | 0.04 | 0.01 | 44 | 1017.4 |
| 20260503223508 | 64 | 189 | 7.0 | 13.0 | 0.00 | 0.04 | 0.01 | 41 | 1017.5 |
| 20260503223021 | 64 | 207 | 6.0 | 13.0 | 0.00 | 0.04 | 0.01 | 42 | 1017.5 |
| 20260503222508 | 64 | 218 | 7.0 | 13.0 | 0.00 | 0.04 | 0.01 | 41 | 1017.5 |
| 20260503222008 | 65 | 186 | 4.0 | 8.0 | 0.00 | 0.04 | 0.01 | 41 | 1017.6 |
| 20260503221533 | 65 | 217 | 2.0 | 7.0 | 0.00 | 0.04 | 0.01 | 44 | 1017.6 |
| 20260503221011 | 65 | 192 | 3.0 | 10.0 | 0.00 | 0.04 | 0.01 | 44 | 1017.6 |
| 20260503220509 | 65 | 252 | 4.0 | 10.0 | 0.00 | 0.04 | 0.01 | 41 | 1017.7 |
| 20260503220026 | 65 | 247 | 2.0 | 13.0 | 0.00 | 0.04 | 0.01 | 41 | 1017.7 |